Regional Weather Roundup
Issued by NWS

Home | Current Version | Previous Version | Text Only | Print | Product List | Glossary On
Versions: 1 2 3 4 5 6 7 8 9 10 11 12 13 14 15 16 17 18 19 20 21 22 23 24 25 26 27 28 29 30 31 32 33 34 35 36 37 38 39 40 41 42 43 44 45 46 47 48 49 50
000
ASUS45 KABQ 150310
RWRNM
NEW MEXICO REGIONAL WEATHER ROUNDUP
NATIONAL WEATHER SERVICE ALBUQUERQUE NM
800 PM MST THU DEC 14 2017

NOTE: "FAIR" MEANS FEW OR NO CLOUDS BELOW 12,000 FEET AGL WITH NO
       SIGNIFICANT WEATHER OR OBSTRUCTIONS TO VISION.

      THIS PRODUCT IS RELEASED AS TWO VERSIONS.  ONE VERSION NEAR
      THE TOP OF THE HOUR CONTAINING PRELIMINARY DATA FROM ALBUQUERQUE
      AND OTHER STATIONS.  A FINAL VERSION WITH ADDITIONAL DATA IS
      ISSUED ABOUT 10 MINUTES AFTER THE HOUR.

NMZ501-503-504-510>518-150400-
NORTHWEST PLATEAU/NORTHCENTRAL MOUNTAINS

CITY           SKY/WX    TMP DP  RH WIND       PRES   REMARKS
FARMINGTON     FAIR      35  14  42 W6        30.20R WCI  30
LOS ALAMOS     FAIR      32  14  47 S7        30.23S WCI  26
SANTA FE       FAIR      29  16  58 E3        30.23R
TAOS           CLOUDY    30  12  47 E3        30.25R
ANGEL FIRE     CLOUDY    27  15  59 S7        30.22R WCI  20

$$
NMZ402-403-502-505>509-150400-
WESTCENTRAL MOUNTAINS/SOUTHWEST MOUNTAINS

CITY           SKY/WX    TMP DP  RH WIND       PRES   REMARKS
GALLUP         FAIR      26  17  68 CALM      30.25R
GRANTS         FAIR      26  15  62 N3        30.26R
SILVER CITY    FAIR      34  10  36 NW8       30.14R WCI  28

$$
NMZ407-409-411-412-150400-
SOUTHERN DESERTS

CITY           SKY/WX    TMP DP  RH WIND       PRES   REMARKS
DEMING         FAIR      48  17  29 E14       30.15R
LAS CRUCES     FAIR      46  17  31 SE8       30.16R
HOLLOMAN AFB   FAIR      40  17  39 W10       30.19R WCI  33
ALAMOGORDO     FAIR      41  16  36 N6        30.18R
T OR C         FAIR      44  16  32 NE13      30.19R

$$
NMZ519>523-150400-
CENTRAL VALLEYS/CENTRAL HIGHLANDS

CITY           SKY/WX    TMP DP  RH WIND       PRES   REMARKS
ALBUQUERQUE    FAIR      37  15  40 E12       30.22R WCI  29
DOUBLE EAGLE   PTCLDY    28  14  54 NW8       30.23R WCI  20
MORIARTY ARPT  FAIR      24  15  67 CALM      30.26R
CLINES CORNERS FAIR      24  14  65 SE6       30.24S WCI  17
BELEN          FAIR      34  12  40 CALM      30.23R
SOCORRO        FAIR      38  13  36 NW6       30.23R WCI  33

$$
NMZ524>526-539-540-150400-
SOUTHCENTRAL MOUNTAINS

CITY           SKY/WX    TMP DP  RH WIND       PRES   REMARKS
RUIDOSO        FAIR      28  14  54 E3        30.27R

$$
NMZ527>531-150400-
NORTHEAST HIGHLANDS/NORTHEAST PLAINS

CITY           SKY/WX    TMP DP  RH WIND       PRES   REMARKS
LAS VEGAS      FAIR      20  12  71 S7        30.25R WCI  11
RATON          CLOUDY    30  19  63 NE7       30.24R WCI  23
CLAYTON        MOCLDY    28  26  92 NW6       30.27R WCI  22

$$
NMZ532>537-150400-
EASTCENTRAL PLAINS

CITY           SKY/WX    TMP DP  RH WIND       PRES   REMARKS
SANTA ROSA     FAIR      32  23  68 E8        30.26R WCI  25
TUCUMCARI      CLOUDY    37  25  61 NE5       30.27R WCI  33
CANNON AFB     MOCLDY    38  23  55 NE9       30.28R WCI  31
CLOVIS AIRPORT NOT AVBL

$$
NMZ028-029-538-150400-
SOUTHEAST PLAINS

CITY           SKY/WX    TMP DP  RH WIND       PRES   REMARKS
ROSWELL        FAIR      38  20  48 NE5       30.25R WCI  34
ARTESIA        FAIR      36  16  44 N9        30.25R WCI  29
CARLSBAD       FAIR      39  22  50 NE3       30.23R


$$



USA.gov is the U.S. government's official web portal to all federal, state and local government web resources and services.